Time,TemperatureF,DewpointF,PressureIn,WindDirection,WindDirectionDegrees,WindSpeedMPH,WindSpeedGustMPH,Humidity,HourlyPrecipIn,Conditions,Clouds,dailyrainin,SoftwareType,DateUTC
2013-09-17 00:12:00,37.0,36.0,30.36,NNE,23,0.0,0.0,98,0.00,,,0.01,,2013-09-17 05:12:00,
2013-09-17 00:23:00,36.0,35.0,30.36,NNE,23,0.0,0.0,98,0.00,,,0.01,,2013-09-17 05:23:00,
2013-09-17 00:42:00,36.0,35.0,30.36,NNE,23,0.0,0.0,98,0.00,,,0.01,,2013-09-17 05:42:00,
2013-09-17 00:52:00,35.0,34.0,30.36,NNE,23,0.0,0.0,98,0.00,,,0.01,,2013-09-17 05:52:00,
2013-09-17 01:12:00,35.0,34.0,30.36,NNE,23,0.0,0.0,98,0.00,,,0.01,,2013-09-17 06:12:00,
2013-09-17 01:22:00,34.0,34.0,30.36,NNE,23,0.0,0.0,98,0.00,,,0.01,,2013-09-17 06:22:00,
2013-09-17 01:42:00,34.0,34.0,30.36,NNE,23,0.0,0.0,98,0.00,,,0.01,,2013-09-17 06:42:00,
2013-09-17 01:52:00,33.0,32.0,30.36,NNE,23,0.0,0.0,98,0.00,,,0.01,,2013-09-17 06:52:00,
2013-09-17 02:11:00,33.0,32.0,30.36,NNE,23,0.0,0.0,98,0.00,,,0.01,,2013-09-17 07:11:00,
2013-09-17 02:23:00,32.0,32.0,30.36,NNE,23,0.0,0.0,98,0.00,,,0.01,,2013-09-17 07:23:00,
2013-09-17 02:42:00,32.0,32.0,30.36,NNE,23,0.0,0.0,98,0.00,,,0.01,,2013-09-17 07:42:00,
2013-09-17 02:52:00,32.0,32.0,30.36,NNE,23,0.0,0.0,98,0.00,,,0.01,,2013-09-17 07:52:00,
2013-09-17 03:12:00,31.0,31.0,30.35,NNE,23,0.0,0.0,98,0.00,,,0.01,,2013-09-17 08:12:00,
2013-09-17 03:22:00,31.0,31.0,30.35,NNE,22,0.0,0.0,98,0.00,,,0.01,,2013-09-17 08:22:00,
2013-09-17 03:42:00,31.0,31.0,30.35,NNE,22,0.0,0.0,98,0.00,,,0.01,,2013-09-17 08:42:00,
2013-09-17 03:52:00,31.0,31.0,30.35,NNE,22,0.0,0.0,98,0.00,,,0.01,,2013-09-17 08:52:00,
2013-09-17 04:12:00,30.0,29.0,30.35,NNE,22,0.0,0.0,98,0.00,,,0.01,,2013-09-17 09:12:00,
2013-09-17 04:22:00,30.0,29.0,30.35,NNE,22,0.0,0.0,98,0.00,,,0.01,,2013-09-17 09:22:00,
2013-09-17 04:42:00,30.0,29.0,30.35,NNE,22,0.0,0.0,98,0.00,,,0.01,,2013-09-17 09:42:00,
2013-09-17 04:53:00,30.0,29.0,30.35,NNE,22,0.0,0.0,98,0.00,,,0.01,,2013-09-17 09:53:00,
2013-09-17 05:12:00,30.0,29.0,30.35,NNE,22,0.0,0.0,98,0.00,,,0.01,,2013-09-17 10:12:00,
2013-09-17 05:23:00,30.0,29.0,30.35,NNE,22,0.0,0.0,98,0.00,,,0.01,,2013-09-17 10:23:00,
2013-09-17 05:42:00,29.0,29.0,30.35,NNE,22,0.0,0.0,98,0.00,,,0.01,,2013-09-17 10:42:00,
2013-09-17 05:53:00,29.0,29.0,30.35,NNE,22,0.0,0.0,98,0.00,,,0.01,,2013-09-17 10:53:00,
2013-09-17 06:11:00,29.0,29.0,30.35,NNE,22,0.0,0.0,98,0.00,,,0.01,,2013-09-17 11:11:00,
2013-09-17 06:22:00,29.0,29.0,30.35,NNE,22,0.0,0.0,98,0.00,,,0.01,,2013-09-17 11:22:00,
2013-09-17 06:52:00,28.0,28.0,30.35,NNE,22,0.0,0.0,98,0.00,,,0.01,,2013-09-17 11:52:00,
2013-09-17 07:12:00,28.0,28.0,30.36,NNE,22,0.0,0.0,98,0.00,,,0.01,,2013-09-17 12:12:00,
2013-09-17 07:22:00,28.0,28.0,30.36,NNE,22,0.0,0.0,98,0.00,,,0.01,,2013-09-17 12:22:00,
2013-09-17 07:42:00,28.0,28.0,30.36,NNE,22,0.0,0.0,98,0.00,,,0.01,,2013-09-17 12:42:00,
2013-09-17 07:52:00,29.0,29.0,30.36,NNE,22,0.0,0.0,98,0.00,,,0.01,,2013-09-17 12:52:00,
2013-09-17 08:11:00,30.0,30.0,30.35,NNE,22,0.0,0.0,99,0.00,,,0.01,,2013-09-17 13:11:00,
2013-09-17 08:22:00,30.0,30.0,30.35,NNE,22,0.0,0.0,99,0.00,,,0.01,,2013-09-17 13:22:00,
2013-09-17 08:42:00,34.0,34.0,30.35,NNE,22,0.0,0.0,99,0.00,,,0.01,,2013-09-17 13:42:00,
2013-09-17 08:52:00,38.0,38.0,30.35,NNE,22,0.0,0.0,99,0.00,,,0.01,,2013-09-17 13:52:00,
2013-09-17 09:11:00,41.0,41.0,30.35,NNE,22,0.0,0.0,99,0.00,,,0.01,,2013-09-17 14:11:00,
2013-09-17 09:22:00,45.0,45.0,30.34,NNE,22,0.0,1.0,99,0.00,,,0.01,,2013-09-17 14:22:00,
2013-09-17 09:52:00,50.0,48.0,30.34,WNW,294,0.0,1.0,93,0.00,,,0.00,,2013-09-17 14:52:00,
2013-09-17 10:11:00,50.0,48.0,30.34,WNW,294,0.0,1.0,93,0.00,,,0.00,,2013-09-17 15:11:00,
2013-09-17 10:22:00,56.0,50.0,30.32,NNE,18,1.0,2.0,81,0.00,,,0.00,,2013-09-17 15:22:00,
2013-09-17 10:44:00,55.0,50.0,30.32,East,101,0.0,6.0,83,0.00,,,0.00,,2013-09-17 15:44:00,
2013-09-17 10:53:00,56.0,49.0,30.31,NNW,330,1.0,5.0,78,0.00,,,0.00,,2013-09-17 15:53:00,
2013-09-17 11:13:00,58.0,50.0,30.30,SW,222,0.0,2.0,76,0.00,,,0.00,,2013-09-17 16:13:00,
2013-09-17 11:23:00,59.0,50.0,30.29,SSW,197,2.0,6.0,71,0.00,,,0.00,,2013-09-17 16:23:00,
2013-09-17 11:53:00,60.0,49.0,30.28,NE,53,0.0,7.0,67,0.00,,,0.00,,2013-09-17 16:53:00,
2013-09-17 12:12:00,61.0,49.0,30.27,SSW,211,0.0,5.0,65,0.00,,,0.00,,2013-09-17 17:12:00,
2013-09-17 12:23:00,62.0,49.0,30.27,NE,50,1.0,4.0,63,0.00,,,0.00,,2013-09-17 17:23:00,
2013-09-17 12:43:00,62.0,50.0,30.27,SSE,148,0.0,5.0,64,0.00,,,0.00,,2013-09-17 17:43:00,
2013-09-17 12:53:00,63.0,49.0,30.26,North,354,1.0,5.0,60,0.00,,,0.00,,2013-09-17 17:53:00,
2013-09-17 13:12:00,63.0,49.0,30.25,SE,139,0.0,5.0,61,0.00,,,0.00,,2013-09-17 18:12:00,
2013-09-17 13:22:00,63.0,49.0,30.25,SE,139,0.0,5.0,61,0.00,,,0.00,,2013-09-17 18:22:00,
2013-09-17 13:42:00,64.0,47.0,30.24,SSE,158,1.0,5.0,55,0.00,,,0.00,,2013-09-17 18:42:00,
2013-09-17 13:52:00,65.0,49.0,30.23,NNW,338,0.0,5.0,57,0.00,,,0.00,,2013-09-17 18:52:00,
2013-09-17 14:12:00,66.0,49.0,30.22,ENE,58,2.0,5.0,54,0.00,,,0.00,,2013-09-17 19:12:00,
2013-09-17 14:22:00,66.0,49.0,30.21,NW,308,0.0,3.0,55,0.00,,,0.00,,2013-09-17 19:22:00,
2013-09-17 14:52:00,66.0,50.0,30.19,ENE,64,1.0,5.0,57,0.00,,,0.00,,2013-09-17 19:52:00,
2013-09-17 15:11:00,66.0,50.0,30.19,SSW,197,1.0,6.0,57,0.00,,,0.00,,2013-09-17 20:11:00,
2013-09-17 15:22:00,66.0,50.0,30.18,NE,49,1.0,5.0,56,0.00,,,0.00,,2013-09-17 20:22:00,
2013-09-17 15:52:00,66.0,54.0,30.16,WNW,302,1.0,4.0,65,0.00,,,0.00,,2013-09-17 20:52:00,
2013-09-17 16:12:00,66.0,51.0,30.16,NW,311,0.0,5.0,59,0.00,,,0.00,,2013-09-17 21:12:00,
2013-09-17 16:22:00,65.0,51.0,30.16,East,80,1.0,4.0,60,0.00,,,0.00,,2013-09-17 21:22:00,
2013-09-17 16:54:00,64.0,51.0,30.15,NW,312,0.0,4.0,63,0.00,,,0.00,,2013-09-17 21:54:00,
2013-09-17 17:13:00,64.0,52.0,30.14,SE,125,1.0,6.0,64,0.00,,,0.00,,2013-09-17 22:13:00,
2013-09-17 17:24:00,63.0,51.0,30.14,ENE,65,2.0,5.0,64,0.00,,,0.00,,2013-09-17 22:24:00,
2013-09-17 17:53:00,62.0,51.0,30.13,NE,53,0.0,3.0,67,0.00,,,0.00,,2013-09-17 22:53:00,
2013-09-17 18:12:00,61.0,51.0,30.13,SW,236,1.0,3.0,69,0.00,,,0.00,,2013-09-17 23:12:00,
2013-09-17 18:22:00,60.0,51.0,30.13,NNW,330,0.0,3.0,71,0.00,,,0.00,,2013-09-17 23:22:00,
2013-09-17 18:52:00,57.0,51.0,30.12,ESE,105,0.0,0.0,81,0.00,,,0.00,,2013-09-17 23:52:00,
2013-09-17 19:11:00,56.0,51.0,30.11,East,92,0.0,4.0,84,0.00,,,0.00,,2013-09-18 00:11:00,
2013-09-17 19:42:00,53.0,50.0,30.11,NNE,17,0.0,1.0,89,0.00,,,0.00,,2013-09-18 00:42:00,
2013-09-17 19:52:00,52.0,49.0,30.11,ESE,106,0.0,0.0,91,0.00,,,0.00,,2013-09-18 00:52:00,
2013-09-17 20:42:00,51.0,50.0,30.11,SE,142,0.0,1.0,97,0.00,,,0.00,,2013-09-18 01:42:00,
2013-09-17 20:52:00,52.0,51.0,30.12,NNW,341,0.0,3.0,96,0.00,,,0.00,,2013-09-18 01:52:00,
2013-09-17 21:11:00,53.0,52.0,30.12,NNE,33,0.0,2.0,95,0.00,,,0.00,,2013-09-18 02:11:00,
2013-09-17 21:22:00,53.0,51.0,30.11,NW,324,0.0,2.0,94,0.00,,,0.00,,2013-09-18 02:22:00,
2013-09-17 21:43:00,54.0,52.0,30.11,West,264,0.0,6.0,94,0.00,,,0.00,,2013-09-18 02:43:00,
2013-09-17 21:52:00,54.0,52.0,30.11,East,91,0.0,4.0,93,0.00,,,0.00,,2013-09-18 02:52:00,
2013-09-17 22:12:00,54.0,52.0,30.11,NNW,329,0.0,3.0,93,0.00,,,0.00,,2013-09-18 03:12:00,
2013-09-17 22:23:00,54.0,52.0,30.11,NW,309,0.0,3.0,93,0.00,,,0.00,,2013-09-18 03:23:00,
2013-09-17 22:44:00,53.0,51.0,30.11,NNW,336,0.0,2.0,94,0.00,,,0.00,,2013-09-18 03:44:00,
2013-09-17 22:54:00,53.0,51.0,30.11,East,86,0.0,1.0,94,0.00,,,0.00,,2013-09-18 03:54:00,
2013-09-17 23:14:00,53.0,51.0,30.11,NNW,343,0.0,2.0,94,0.00,,,0.00,,2013-09-18 04:14:00,
2013-09-17 23:24:00,52.0,51.0,30.10,NNW,343,0.0,1.0,95,0.00,,,0.00,,2013-09-18 04:24:00,
2013-09-17 23:44:00,52.0,51.0,30.09,NE,37,0.0,0.0,96,0.00,,,0.00,,2013-09-18 04:44:00,
2013-09-17 23:54:00,52.0,51.0,30.09,NNE,20,0.0,4.0,97,0.00,,,0.00,,2013-09-18 04:54:00,